Regional Weather Roundup
Issued by NWS

Home | Current Version | Previous Version | Graphics & Text | Print | Product List | Glossary On
Versions: 1 2 3 4 5 6 7 8 9 10 11 12 13 14 15 16 17 18 19 20 21 22 23 24 25 26 27 28 29 30 31 32 33 34 35 36 37 38 39 40 41 42 43 44 45 46 47 48 49 50
000
ASUS43 KTOP 020908
RWRKS

WEATHER ROUNDUP FOR KANSAS
NATIONAL WEATHER SERVICE GOODLAND KS
300 AM CST MON MAR 02 2015

NOTE:  "FAIR" INDICATES FEW OR NO CLOUDS BELOW 12,000 FEET WITH NO
SIGNIFICANT WEATHER AND/OR OBSTRUCTIONS TO VISIBILITY.

KSZ001>006-013>018-027>032-041>047-021000-
NORTHWEST KANSAS

CITY           SKY/WX    TMP DP  RH WIND       PRES   REMARKS
GOODLAND       CLOUDY    29  21  72 S10       30.28F WCI  20
HAYS           MOCLDY    23  12  63 CALM      30.41F
HILL CITY      CLOUDY    29  21  72 S3        30.39F
RUSSELL        PTCLDY    24  20  84 S6        30.40F
$$

KSZ061>065-074>080-084>089-021000-
SOUTHWEST KANSAS

CITY           SKY/WX    TMP DP  RH WIND       PRES   REMARKS
DODGE CITY     MOCLDY    23  18  81 S3        30.38F
ELKHART          N/A     22  17  81 S6          N/A
GARDEN CITY    MOCLDY    20  18  92 SE7       30.34F
GREAT BEND     PTCLDY    19  14  79 CALM      30.44R
LIBERAL        MOCLDY    21  16  79 S5        30.36F
PRATT          PTCLDY    23  21  93 NE3       30.42F
$$

KSZ066>073-081>083-090>101-021000-
SOUTHEAST KANSAS

CITY           SKY/WX    TMP DP  RH WIND       PRES   REMARKS
CHANUTE        PTCLDY    17  15  92 N3        30.50S
COFFEYVILLE    PTCLDY    21  18  88 N5        30.50F
HUTCHINSON     MOCLDY    19  15  84 CALM      30.46F
MEDICINE LODGE   N/A     20  18  92 N3        30.44F
NEWTON         MOCLDY    23  16  74 E3        30.47S
PARSONS        PTCLDY    21  18  88 CALM      30.50F
WICHITA INTL   MOCLDY    22  18  85 N3        30.46F
WICHITA JABRA  MOCLDY    20  17  88 N6        30.46F
WICHITA MCCONL PTCLDY    20  18  90 N6        30.45F
WINFIELD       PTCLDY    18  16  92 CALM      30.47F
$$

KSZ007>012-019>026-033>040-048>060-102>105-021000-
NORTHEAST KANSAS

CITY           SKY/WX    TMP DP  RH WIND       PRES   REMARKS
CONCORDIA      CLOUDY    29  23  78 SW3       30.46R
EMPORIA        PTCLDY    20  17  88 CALM      30.47F
LAWRENCE       PTCLDY    17  15  92 CALM      30.50F
MANHATTAN      MOCLDY    21  19  92 CALM      30.49F
MARYSVILLE     CLOUDY    30  25  80 CALM      30.47F
OLATHE IND     MOCLDY    19  17  92 CALM      30.49F
OLATHE EXE     MOCLDY    24  20  84 N5        30.48F
SALINA         PTCLDY    22  17  81 CALM      30.47F
TOPEKA BILLARD PTCLDY    21  18  88 CALM      30.50F FOG
TOPEKA FORBES  MOCLDY    21  17  84 CALM      30.48F
$$



USA.gov is the U.S. government's official web portal to all federal, state and local government web resources and services.